GFSSGP_250_spd_000.txt.gz
Wind_Speed
17 17 17 18 18 18 20 20 21 21 18 16 14 11 14 13 14 13 10 9 8 9 10 17 22 25 25 30 35 44 52 58 61 59 58 60 61 61 63 62 58 57 56 54 51 51 50 48 47
22 21 22 20 19 18 18 20 20 18 17 14 13 11 11 10 11 11 12 13 12 10 10 12 17 25 27 28 33 38 46 52 56 57 57 58 58 56 58 61 60 59 60 58 58 57 55 53 51
28 27 25 25 24 22 21 21 21 20 18 15 14 11 11 12 10 11 12 15 13 12 10 11 17 19 25 29 30 35 39 45 53 56 60 60 61 59 56 53 53 57 59 60 59 61 59 54 56
31 32 29 29 28 27 25 22 23 22 20 19 14 12 12 10 12 12 15 16 16 14 13 10 12 17 20 23 29 32 34 41 45 52 57 61 62 62 63 61 62 60 54 56 54 55 60 60 60
28 29 31 32 31 30 29 27 24 24 21 20 19 14 13 12 11 12 14 15 16 17 15 14 14 15 17 19 23 28 33 36 39 42 48 53 59 62 65 67 67 67 61 62 63 63 62 63 61
29 29 28 29 34 34 33 31 28 26 25 22 21 20 17 16 15 14 14 16 18 16 17 18 18 16 17 17 18 21 27 32 37 38 41 44 50 55 62 61 66 68 69 67 68 69 70 71 70
28 28 29 27 27 32 35 35 33 31 28 27 23 22 23 20 20 18 18 17 18 20 21 21 20 16 15 15 17 18 20 24 29 34 37 39 41 43 46 53 61 65 65 66 66 65 66 67 67
28 27 27 26 26 25 28 31 36 36 33 30 29 27 24 24 23 23 23 22 22 22 21 24 23 21 21 20 19 20 22 19 20 25 27 29 29 29 33 38 42 47 48 49 50 49 50 51 50
18 22 20 22 24 25 26 27 30 33 35 34 30 32 30 29 27 26 24 26 26 25 25 25 26 25 26 27 25 24 24 23 22 22 24 25 26 27 27 28 31 32 32 32 31 32 32 34 34
13 16 6 12 13 16 17 18 26 29 29 30 34 36 34 34 33 32 29 27 27 29 30 30 30 31 31 31 31 30 28 30 28 27 26 27 27 28 28 27 28 29 29 26 27 27 28 30 32
17 17 13 15 12 15 14 18 24 24 23 24 25 33 37 35 38 38 35 34 32 31 31 33 33 33 33 34 36 35 35 33 33 33 33 32 32 33 32 32 30 30 31 32 33 34 33 34 36
21 23 21 23 16 17 20 23 28 27 19 28 25 22 26 38 37 37 41 38 36 35 33 33 34 37 36 36 36 38 39 37 37 38 37 35 34 34 33 33 34 34 35 36 35 35 36 39 39
25 28 28 28 25 23 22 22 31 31 20 27 28 26 23 22 31 38 40 42 40 39 39 38 36 35 37 37 38 38 39 43 42 42 41 41 40 39 40 40 40 39 40 40 40 40 40 43 43
29 32 34 35 30 29 25 25 33 34 27 33 31 32 32 29 24 26 34 42 45 45 45 42 42 40 39 37 38 40 40 42 47 48 47 46 47 47 45 45 44 45 44 46 47 45 45 44 44
31 29 34 41 37 35 31 29 40 39 35 34 37 34 34 36 34 29 27 30 37 48 48 48 47 46 46 43 41 40 39 42 45 47 50 52 52 53 51 49 47 46 45 46 46 44 46 45 45
32 28 28 39 39 35 29 25 39 38 36 37 39 42 36 34 36 38 33 27 28 33 44 51 50 50 51 50 48 47 45 44 44 44 47 49 52 52 52 49 49 49 48 48 48 48 48 47 48
38 27 29 34 48 32 30 26 34 39 39 37 42 45 41 38 38 38 36 33 32 29 34 41 50 53 52 53 54 53 52 52 53 49 49 49 51 52 53 53 53 53 53 52 52 53 53 53 55
40 37 35 35 50 37 26 25 31 38 38 41 44 44 45 43 41 41 39 36 36 37 37 37 38 44 49 53 56 57 57 56 57 56 56 56 56 58 59 59 60 61 59 59 59 59 59 59 58
39 39 40 44 48 37 31 27 33 39 44 47 46 46 44 45 48 46 43 39 35 36 38 41 42 44 45 47 49 54 62 63 62 62 61 61 62 60 59 60 63 64 65 65 64 63 63 63 62
53 53 48 46 52 46 38 29 33 37 42 46 49 52 50 51 51 53 51 48 45 41 39 42 44 45 47 47 47 49 53 58 64 66 66 65 65 63 64 65 65 64 63 63 62 61 60 60 60
60 58 55 49 51 47 45 33 32 35 42 45 45 49 54 54 53 54 53 50 47 49 49 48 49 51 51 49 50 51 52 51 53 58 61 62 62 64 66 65 63 60 58 57 58 59 60 61 63
64 72 64 54 54 50 50 30 34 39 48 56 54 50 51 54 56 59 60 60 60 59 57 56 52 53 56 56 56 56 55 55 56 53 53 55 55 56 56 56 58 58 59 60 59 60 61 63 63
74 79 79 75 71 60 51 51 45 55 52 52 56 60 62 61 63 64 67 65 64 61 60 61 63 60 58 59 60 62 63 62 64 60 60 61 60 61 63 63 63 64 65 65 65 64 65 65 63
88 84 85 92 80 78 81 78 41 56 59 64 63 66 65 65 65 63 69 73 74 72 72 68 66 70 71 68 66 64 68 71 70 69 68 67 66 67 68 70 69 70 71 71 70 67 64 64 65
91 98 94 92 96 86 94 96 75 78 79 79 83 83 77 78 80 75 76 81 83 81 80 80 73 70 71 74 72 73 73 73 76 77 77 74 70 71 72 73 74 75 75 74 72 72 69 68 72
95 101 106 106 104 105 108 108 99 98 89 91 95 100 100 97 89 91 86 86 88 89 88 86 88 90 83 77 75 74 76 81 78 79 78 78 81 82 78 78 79 78 78 78 80 80 81 78 80
104 107 108 117 119 123 113 112 113 105 104 100 105 102 108 109 106 102 99 94 96 96 99 98 95 93 95 94 93 91 84 83 85 82 76 84 85 86 86 88 92 92 88 85 86 86 85 84 87
120 118 119 121 130 132 130 123 122 110 103 110 109 110 110 111 111 108 106 101 101 101 101 100 101 103 99 102 102 101 97 89 92 94 97 97 97 93 91 93 89 92 94 91 91 89 92 94 97
126 125 128 129 134 141 141 136 115 108 107 110 116 115 113 110 110 108 110 111 103 101 102 100 103 110 114 108 105 105 104 106 101 101 104 106 106 102 98 96 99 103 102 103 99 98 102 101 103
132 135 137 136 136 139 145 146 121 117 115 119 114 116 112 111 110 113 114 115 109 103 99 101 102 108 117 123 112 110 111 110 110 110 112 112 111 109 108 105 104 108 108 109 110 110 113 113 111

GFSSGP_250_spd_003.txt.gz
Wind_Speed
24 24 24 23 23 23 23 23 22 22 22 17 16 14 8 8 10 9 4 1 6 7 10 16 23 25 26 29 34 41 51 58 60 58 58 57 58 59 58 60 55 48 50 50 50 50 49 48 49
28 28 27 26 26 25 24 23 23 21 19 18 15 15 11 9 8 7 6 8 4 4 9 12 15 21 25 25 29 34 41 50 57 62 61 61 60 60 58 59 55 57 55 49 50 49 51 50 48
28 28 30 30 29 27 25 25 24 23 21 18 14 17 15 12 11 9 9 8 8 7 2 3 10 14 18 25 27 29 33 39 49 57 60 64 65 61 63 58 58 58 57 60 55 54 59 56 54
27 24 25 27 27 28 27 26 26 25 24 23 19 17 17 16 13 13 11 11 12 10 6 3 3 4 10 18 22 27 28 33 39 45 52 57 62 64 63 62 62 59 52 58 64 64 64 62 62
30 30 28 27 27 26 26 27 27 26 25 24 23 18 17 17 17 16 15 13 14 13 11 9 7 7 8 10 17 20 22 28 33 40 42 47 54 56 61 62 62 60 55 57 56 61 62 65 64
30 32 29 26 29 27 25 27 26 26 25 26 25 25 20 18 20 20 17 16 16 15 16 15 14 12 8 7 11 14 17 21 25 32 37 40 44 50 56 60 62 63 62 61 61 61 63 61 61
27 28 28 27 28 26 25 24 25 25 26 29 27 26 28 23 18 21 22 21 19 20 18 18 19 19 17 12 8 11 13 16 20 24 28 34 37 40 42 47 52 60 65 68 67 71 71 68 67
24 24 22 20 21 22 24 25 23 23 20 25 25 32 29 28 26 20 21 23 24 22 23 21 22 21 21 20 17 15 14 15 17 20 24 26 29 33 37 38 40 43 46 49 54 62 66 67 68
16 18 14 12 16 17 18 17 16 21 20 22 19 22 29 27 30 28 25 23 25 26 26 25 25 25 25 25 24 22 23 19 19 21 23 25 27 28 30 32 35 37 38 39 43 47 50 52 50
15 19 12 10 10 16 16 16 21 24 19 19 21 17 21 26 28 30 32 31 27 27 28 27 29 28 28 29 29 29 28 27 26 25 26 26 28 29 29 29 30 31 32 33 34 35 37 35 34
20 21 20 17 13 16 17 21 27 25 19 15 27 19 19 20 22 28 35 37 36 34 31 27 28 29 31 31 32 32 33 34 32 31 32 32 30 29 31 32 32 31 31 32 32 32 29 30 30
23 26 26 24 20 18 20 24 33 27 22 22 27 26 22 21 17 20 28 35 39 40 37 35 33 32 31 32 36 36 36 36 36 38 37 37 36 35 36 36 35 35 35 34 32 32 33 34 35
22 24 26 26 25 21 19 20 35 31 25 25 28 30 28 23 22 22 21 23 27 36 41 39 39 39 37 35 34 34 38 40 39 39 42 41 39 39 40 39 38 38 38 36 36 36 37 37 38
23 24 26 25 20 19 24 25 30 35 28 31 32 35 36 33 26 27 26 25 24 26 30 37 43 43 43 42 40 36 35 36 37 39 41 45 46 46 45 45 44 42 42 44 42 43 43 45 46
26 23 28 29 23 21 20 22 27 30 27 30 33 35 36 34 34 32 32 29 25 28 27 31 33 40 47 47 46 44 43 39 38 39 41 43 47 51 51 50 49 50 50 47 48 48 47 47 47
29 22 28 37 32 19 16 17 30 31 29 30 30 35 37 37 33 36 35 31 33 30 28 28 31 33 37 45 51 50 49 47 45 44 42 42 42 42 44 48 51 53 54 53 52 52 51 49 48
32 26 30 37 44 29 20 18 30 36 32 34 36 35 35 37 38 37 36 32 30 32 34 35 34 33 33 33 39 45 52 51 53 52 49 49 47 45 43 43 45 48 51 51 53 53 54 53 54
36 31 28 30 41 36 32 28 33 35 36 38 41 42 42 39 42 43 39 36 33 32 32 37 37 38 36 37 38 38 40 45 51 55 56 55 53 52 52 50 49 50 52 53 55 57 59 59 58
43 40 33 36 40 33 35 33 36 40 42 47 48 46 43 44 47 45 46 45 41 39 37 39 40 39 40 41 40 41 43 42 45 46 50 56 59 59 57 56 56 57 58 59 61 64 64 65 64
42 42 45 44 45 38 33 32 36 41 47 52 53 52 47 47 51 49 47 45 48 46 45 41 42 43 42 41 42 44 46 48 49 50 50 49 51 57 62 64 64 65 65 66 67 66 67 68 66
61 61 61 45 44 46 37 25 31 36 44 52 50 49 49 48 55 58 55 51 48 47 50 52 49 45 44 47 48 49 51 53 54 54 52 51 52 52 54 57 62 67 70 71 70 70 69 68 66
65 73 65 64 62 51 48 41 41 39 45 49 51 52 55 62 60 57 55 58 60 59 61 56 59 62 58 53 53 52 51 53 57 59 58 55 55 57 58 57 56 57 59 62 64 66 66 64 63
74 79 82 84 68 58 57 56 49 54 51 49 55 62 67 73 71 70 76 75 70 71 65 62 62 64 66 65 64 61 56 56 61 61 61 61 62 63 63 64 64 62 62 62 63 65 67 69 70
78 76 82 85 87 81 78 72 53 65 72 75 78 84 82 88 84 76 77 81 91 89 87 89 73 71 69 73 72 71 72 66 59 62 64 68 67 67 68 70 71 71 70 70 70 69 69 70 72
91 94 91 92 88 84 89 83 68 80 85 89 90 96 95 91 95 97 98 100 95 91 91 88 86 81 78 79 75 78 83 81 79 74 74 71 69 69 73 75 74 72 73 71 71 72 73 74 74
96 93 100 105 100 96 101 98 82 85 95 100 106 108 109 109 106 104 105 104 106 102 102 96 94 94 92 88 90 82 85 85 87 84 82 83 80 83 81 79 80 79 77 74 73 75 74 77 80
99 100 104 112 115 118 112 110 104 92 102 109 115 115 116 117 116 117 118 110 107 109 107 107 101 99 100 99 97 102 94 91 93 94 96 93 93 92 93 90 84 86 87 82 82 84 89 88 85
110 110 110 113 122 123 128 123 124 111 111 116 118 120 122 120 121 120 116 116 115 106 105 110 107 103 106 107 105 105 110 104 96 101 102 104 103 101 100 100 96 94 94 95 93 94 96 94 93
119 123 121 131 134 135 136 136 129 126 111 104 116 118 120 121 121 119 116 116 114 110 105 107 112 109 108 112 113 112 113 112 109 105 108 114 109 108 108 108 108 104 103 102 100 103 104 102 101
128 129 134 142 139 137 143 141 141 135 131 127 119 119 112 111 115 115 116 114 117 107 103 111 116 110 116 114 116 115 116 113 109 108 108 114 116 116 112 116 116 112 110 110 109 109 108 107 109

GFSSGP_250_spd_006.txt.gz
Wind_Speed
26 27 27 27 25 25 25 25 22 20 15 14 16 12 12 10 6 5 14 16 16 15 20 23 27 30 33 37 42 47 52 55 58 64 64 62 64 58 56 63 65 60 60 61 58 56 56 55 53
27 26 24 25 25 25 25 25 25 22 19 13 13 15 12 11 13 7 4 8 8 14 15 16 20 26 27 30 32 37 45 48 53 57 59 63 66 66 63 64 67 62 63 63 61 59 58 54 51
23 22 20 21 21 22 24 25 24 24 22 19 14 12 12 12 11 10 9 4 3 7 13 13 17 21 24 26 29 32 34 40 45 51 57 60 60 60 62 66 66 64 64 66 65 58 54 57 54
26 24 22 21 22 21 21 23 25 24 24 23 19 16 13 15 14 13 12 11 6 4 6 8 10 12 17 22 25 29 31 34 37 42 49 56 61 64 61 62 64 60 57 56 57 59 60 57 55
26 23 24 25 23 24 22 19 20 22 22 22 22 21 18 16 16 15 13 12 13 10 3 3 5 7 7 11 19 21 27 32 33 35 39 44 52 57 61 65 67 65 65 66 59 59 61 61 62
23 24 24 23 24 23 21 18 16 15 19 22 21 24 22 18 17 18 16 15 15 13 13 10 8 6 4 5 9 17 21 23 27 32 34 38 40 44 51 56 60 64 67 69 64 64 67 61 62
21 22 22 16 17 17 16 15 15 15 14 18 15 19 23 22 19 18 18 18 16 16 17 16 16 14 10 7 7 8 10 17 21 22 26 31 36 40 42 44 48 52 56 58 60 61 65 61 59
19 20 15 17 16 15 16 15 12 15 14 15 17 15 19 20 22 21 20 20 20 18 18 17 18 19 19 18 15 11 12 12 15 19 22 24 26 30 34 38 40 41 44 48 54 59 62 64 65
19 17 12 16 16 17 16 16 19 16 14 11 19 17 17 18 17 19 22 23 22 22 22 20 21 20 21 22 22 21 20 17 17 18 19 21 22 25 28 32 35 37 39 41 43 45 48 52 58
20 17 13 14 15 20 20 20 24 20 14 16 20 21 20 18 16 17 21 25 27 26 26 24 24 22 23 25 25 26 26 25 24 23 23 23 25 27 28 29 30 33 35 37 38 39 41 40 42
21 17 16 16 17 19 20 22 31 23 19 21 27 25 23 23 20 18 17 20 26 30 31 30 29 28 27 26 26 27 30 30 30 30 31 30 29 29 30 30 29 31 31 32 33 34 34 35 36
24 18 14 11 12 15 17 22 34 24 20 27 28 33 28 24 25 23 22 18 19 20 22 29 32 33 33 30 28 28 30 33 35 34 35 35 34 34 34 35 34 32 32 32 33 33 33 33 32
24 23 15 15 13 10 16 23 34 30 21 28 31 33 36 33 29 28 27 22 21 21 23 23 27 33 35 36 35 34 33 32 33 37 39 38 38 38 38 38 38 37 37 37 36 35 34 34 34
27 23 23 19 15 15 15 20 25 29 21 27 28 34 33 38 30 28 26 26 24 24 29 30 28 25 30 38 40 40 40 37 35 35 37 39 41 41 41 42 42 41 40 41 41 39 38 39 41
29 28 29 30 24 15 11 24 26 26 24 28 33 34 34 33 33 28 24 25 25 28 29 29 32 31 29 29 34 38 43 44 41 40 39 39 40 42 42 43 46 48 48 48 48 49 48 45 46
30 29 26 36 31 21 16 23 32 27 30 34 38 39 37 36 33 33 30 28 26 28 31 33 33 33 33 32 32 33 35 37 42 46 45 45 43 42 42 43 45 48 51 54 56 55 55 53 52
32 25 27 30 40 23 18 28 37 37 33 40 43 45 42 38 38 36 36 34 32 31 32 32 34 37 35 37 38 38 37 36 36 38 42 47 49 47 47 46 45 46 47 50 53 56 57 57 58
34 32 30 31 38 26 23 25 32 39 38 43 49 49 46 43 41 42 39 38 40 38 37 38 38 39 38 39 40 43 43 44 40 40 38 39 42 47 50 51 52 51 50 51 51 51 51 53 55
43 42 39 38 41 30 29 27 30 32 38 43 46 47 49 50 50 48 44 41 42 44 44 40 40 42 42 39 42 44 46 46 49 49 45 46 43 40 40 44 50 56 58 57 56 57 57 56 57
44 45 43 46 45 37 36 34 42 43 45 43 43 47 50 49 45 47 48 49 47 44 44 46 47 44 41 42 42 44 48 49 49 52 51 51 49 47 46 44 44 47 52 60 64 66 65 65 65
54 55 55 49 52 54 47 52 44 48 50 48 53 53 49 49 48 48 49 48 48 47 46 46 44 45 50 49 50 52 52 53 55 55 58 60 58 57 55 54 51 49 50 52 55 61 68 70 72
63 62 59 61 60 59 54 51 61 61 65 60 59 55 55 51 56 59 56 60 62 62 67 64 59 61 58 60 60 55 55 62 59 58 60 63 64 64 62 61 61 57 56 55 57 59 60 60 62
67 71 66 62 62 65 61 63 59 66 72 67 64 65 60 66 70 71 72 69 71 71 70 75 76 75 72 74 69 68 66 64 67 68 66 66 66 65 69 71 66 64 63 64 63 63 63 62 63
75 73 77 76 72 63 66 66 63 68 67 79 77 76 74 76 75 77 76 78 80 80 83 84 89 86 87 84 79 80 80 80 73 75 75 74 75 76 76 73 73 74 70 68 67 66 68 69 69
84 84 82 82 85 75 78 75 66 76 77 76 80 87 86 88 90 90 94 92 94 92 89 91 91 93 92 91 91 91 89 87 86 82 83 85 85 82 82 84 82 79 77 73 70 69 68 70 72
85 92 95 89 79 88 85 80 75 84 83 85 90 89 93 97 100 102 107 114 108 106 101 101 99 100 101 97 94 94 92 94 97 95 94 90 94 95 90 85 88 89 89 86 81 75 75 76 77
101 91 101 107 97 100 89 87 79 94 93 95 96 99 100 102 108 114 116 121 118 115 115 110 112 110 109 113 110 107 109 111 104 102 104 103 101 103 102 97 95 95 94 95 95 89 87 84 83
103 108 102 103 111 116 107 98 97 94 98 104 106 107 112 114 118 124 126 124 123 121 126 121 114 115 121 120 117 115 116 112 112 113 108 111 109 108 109 108 105 103 105 104 101 101 99 97 94
110 109 113 115 119 116 118 119 109 110 109 106 115 118 122 124 127 128 128 134 130 128 127 125 122 118 123 128 124 120 117 116 116 116 118 118 118 118 115 116 113 114 112 111 110 109 109 106 106
113 118 118 114 116 125 130 130 131 130 125 126 129 126 129 132 136 135 128 130 133 129 127 129 126 130 127 130 129 123 123 122 121 116 119 122 123 123 124 123 122 122 122 122 117 117 116 117 116

GFSSGP_250_spd_009.txt.gz
Wind_Speed
28 27 28 27 26 26 25 24 20 17 14 10 10 8 4 2 3 4 14 19 22 23 24 26 30 34 36 41 48 55 59 62 63 64 64 65 64 63 64 61 62 59 62 59 58 58 58 59 56
25 24 24 24 23 24 25 23 21 19 17 16 12 9 6 3 3 4 3 12 16 22 20 24 28 31 36 38 42 47 52 57 61 63 65 65 67 66 65 65 65 62 67 63 65 61 60 61 61
24 23 20 21 22 23 24 24 22 20 19 18 17 14 11 9 6 5 5 4 5 14 18 20 20 23 32 35 38 42 46 50 54 58 63 64 67 68 68 69 65 68 62 66 68 67 65 64 67
22 21 21 20 21 22 22 22 23 21 19 20 19 17 16 12 9 8 7 6 4 2 11 16 20 21 23 28 33 37 40 43 47 50 54 59 63 67 69 69 67 65 65 66 68 60 64 65 63
20 20 21 20 19 18 18 17 16 17 17 17 19 19 16 15 14 11 10 9 8 6 4 9 14 15 19 24 27 31 37 39 42 44 47 50 53 59 64 67 70 70 69 71 71 68 66 67 67
20 18 18 16 16 14 13 12 12 12 12 14 14 18 20 17 17 15 14 12 10 9 7 7 9 12 12 15 17 21 28 32 37 40 42 43 45 50 56 62 65 67 66 64 65 65 57 58 59
18 16 14 16 16 14 13 13 12 9 9 13 10 11 16 16 17 20 17 16 14 13 11 9 8 9 9 10 11 10 11 20 27 31 35 38 40 43 46 50 58 64 65 66 66 67 65 64 61
17 14 13 15 16 14 13 14 15 12 7 8 14 14 10 12 12 16 20 20 18 17 15 13 13 12 13 13 12 12 12 12 12 17 23 27 32 36 39 41 43 46 50 55 60 64 66 67 69
18 16 14 16 17 16 16 16 19 14 8 15 19 19 19 16 14 14 16 21 21 20 19 17 17 17 16 17 19 18 16 14 14 14 15 16 19 22 28 34 38 41 43 45 45 47 50 53 55
21 14 13 16 18 20 18 20 23 24 11 18 23 24 22 19 19 16 16 16 16 20 23 22 22 22 21 21 22 22 23 23 22 19 19 20 20 19 21 23 26 31 34 37 40 42 43 45 47
26 19 16 14 17 18 20 23 27 32 14 16 23 26 27 24 19 18 18 18 17 17 16 19 23 25 28 27 27 25 24 25 25 27 27 27 26 25 24 24 23 25 27 29 31 32 33 35 37
26 20 20 19 15 15 18 25 29 36 21 25 29 31 32 31 24 19 18 17 16 18 20 22 21 22 26 31 32 31 30 28 29 29 32 33 32 32 32 31 30 29 28 29 30 30 32 33 34
30 29 24 25 18 17 21 27 29 34 26 25 30 33 33 28 26 21 17 18 20 20 22 28 28 28 28 28 31 35 34 34 33 33 33 34 36 37 37 37 38 36 35 33 33 33 31 31 32
33 32 31 29 27 26 22 31 28 34 31 33 31 34 34 30 28 27 19 22 23 24 26 29 32 34 36 34 32 32 35 38 39 39 39 37 37 38 39 40 42 41 40 40 38 36 36 36 35
35 34 36 37 35 31 23 32 34 33 34 38 39 36 32 31 31 28 29 25 25 26 28 29 32 34 38 39 38 36 34 34 37 40 43 44 44 43 41 40 42 43 42 43 44 44 43 43 42
36 33 36 41 41 31 28 32 39 40 36 40 42 44 38 37 31 32 33 36 33 29 29 30 31 33 35 37 37 38 38 37 36 37 39 44 46 47 45 44 43 43 44 46 47 48 49 50 50
39 34 39 40 49 34 29 36 44 47 43 45 47 42 41 38 35 34 36 39 39 40 41 38 35 35 34 36 37 37 37 40 41 41 41 40 39 43 49 51 50 48 48 48 50 51 52 54 55
40 37 38 38 49 40 36 36 41 45 45 46 48 48 46 42 39 36 38 40 41 43 45 45 44 40 38 37 38 39 40 41 39 41 45 46 45 44 43 47 52 54 54 53 52 51 52 54 56
47 45 44 47 46 44 45 39 40 42 49 49 47 46 44 42 42 40 39 40 42 46 46 48 48 45 42 40 40 41 42 42 45 43 45 46 46 47 47 48 45 45 49 54 59 59 60 58 58
57 55 54 53 55 51 50 47 47 47 52 52 52 54 59 58 54 48 47 45 42 40 42 45 47 43 42 41 39 36 40 48 47 46 48 50 50 51 49 49 49 51 51 52 54 57 62 64 65
62 59 54 55 57 58 56 51 54 56 57 60 59 58 57 56 57 59 61 57 50 45 43 45 48 49 51 53 51 56 56 54 55 58 58 56 57 56 57 58 54 53 56 58 57 57 58 59 62
59 62 62 61 61 62 60 57 62 65 66 63 64 66 65 67 69 72 67 67 66 57 59 59 56 56 57 56 62 59 66 67 68 65 68 71 64 65 62 63 65 65 62 61 61 62 61 61 63
75 75 74 71 67 64 65 67 61 66 73 68 69 72 72 71 71 69 66 68 66 72 71 70 69 68 68 68 66 72 74 74 75 77 77 79 77 76 74 70 71 71 72 72 70 71 67 67 68
76 76 72 80 79 69 76 78 69 70 72 72 74 82 81 78 77 78 78 76 74 73 80 83 77 78 79 80 83 81 85 84 81 82 86 88 86 84 83 83 82 79 76 77 77 80 77 74 72
88 82 84 83 74 73 85 77 70 79 81 80 85 84 83 86 89 87 89 91 87 84 81 79 83 87 89 90 89 91 94 95 94 90 89 91 95 95 92 90 89 86 84 87 84 83 84 82 79
99 97 95 94 94 85 84 76 83 89 84 85 87 89 93 89 95 101 94 86 94 96 90 91 92 91 92 96 98 99 96 101 104 102 102 98 99 101 101 98 97 96 96 96 94 93 92 92 87
101 98 103 104 100 106 96 93 88 95 100 93 94 91 92 91 96 92 108 113 105 101 102 105 103 103 103 105 107 110 112 115 113 113 111 110 107 110 110 109 106 105 103 102 105 104 100 100 98
105 101 101 107 113 112 105 106 102 100 107 101 101 101 107 97 99 103 109 106 106 107 108 110 113 116 115 115 118 119 120 123 125 123 122 119 118 118 120 117 115 113 111 110 112 111 109 109 107
105 110 103 113 116 123 123 113 103 105 109 112 109 108 105 117 115 109 119 113 113 117 118 122 123 125 127 127 129 131 132 135 133 131 130 133 124 125 122 128 125 126 123 123 124 121 120 117 115
107 112 118 119 118 127 128 126 115 115 114 118 120 120 123 120 119 121 124 123 123 126 128 132 137 140 140 138 140 141 141 142 135 135 135 133 132 130 129 125 127 127 133 127 126 126 125 124 121

GFSSGP_250_spd_015.txt.gz
Wind_Speed
22 22 21 21 20 19 18 17 16 12 11 12 11 8 8 8 10 10 12 12 12 12 13 15 18 30 41 44 51 56 56 60 61 63 63 63 63 63 62 61 60 61 58 56 55 55 55 55 56
20 21 18 18 19 20 17 17 18 15 12 13 14 12 9 11 9 7 11 11 11 12 12 13 16 19 27 39 45 48 55 58 61 62 63 63 64 64 65 64 63 61 61 60 59 58 58 56 54
20 16 15 16 17 19 19 18 17 14 13 12 14 15 12 11 13 11 10 14 12 13 14 14 15 17 20 24 34 41 47 53 59 60 61 63 63 64 66 66 67 66 64 63 63 62 59 60 58
20 15 14 15 15 14 16 17 16 12 11 10 10 13 15 13 12 13 13 12 12 15 15 15 15 17 17 22 29 33 39 44 51 58 61 61 64 65 65 65 68 68 69 68 66 66 65 63 62
18 16 11 13 14 14 14 13 14 13 10 8 8 7 12 13 14 12 12 12 13 14 14 15 16 17 18 20 22 28 36 40 43 48 55 60 63 64 66 68 68 68 69 70 70 69 69 68 66
18 15 10 12 14 15 12 12 9 10 11 9 7 7 6 9 13 13 13 13 13 14 17 16 16 18 18 20 22 25 27 34 41 45 47 51 57 61 64 67 70 71 71 70 72 70 72 71 71
21 16 9 12 14 15 9 12 11 4 7 11 11 8 3 7 7 7 8 12 17 16 16 17 20 20 20 21 20 21 23 28 33 36 40 43 48 50 55 60 66 70 72 74 75 74 74 74 72
22 18 10 13 14 16 18 16 12 9 6 10 19 13 10 7 8 8 6 8 10 15 20 20 19 24 23 25 24 24 24 25 28 32 35 37 40 43 46 50 54 58 62 67 71 74 75 76 77
25 20 14 11 15 17 18 20 21 15 6 12 21 17 14 10 11 9 9 10 12 14 16 23 23 23 24 28 28 26 28 28 27 28 30 34 37 39 40 44 47 49 50 54 58 62 65 68 71
27 23 22 14 16 16 18 20 23 24 12 11 24 22 13 15 12 12 13 13 14 16 17 18 23 28 28 29 29 30 32 31 31 30 31 31 30 32 37 39 38 41 44 48 49 51 54 57 62
27 27 26 22 20 20 20 19 23 28 22 16 22 24 26 21 12 12 15 19 20 20 20 22 21 22 25 29 31 31 31 32 32 32 33 34 35 33 33 32 35 38 40 41 43 45 48 51 52
29 30 30 28 26 25 25 21 27 28 34 25 19 28 26 21 17 14 20 20 21 25 28 28 27 26 25 26 25 27 30 34 35 33 33 34 35 36 35 34 34 34 34 36 37 39 41 44 46
32 33 33 34 31 31 31 27 31 32 35 36 30 27 27 24 26 24 23 25 24 25 28 32 32 32 31 31 31 30 29 30 32 34 37 39 37 36 35 36 38 39 38 38 37 38 38 39 40
32 35 38 37 35 35 35 35 33 36 39 41 40 37 32 29 33 34 31 33 31 28 27 30 35 35 37 35 32 33 33 33 35 34 34 35 41 41 40 39 38 38 38 40 41 41 41 41 41
34 37 40 40 38 37 35 41 40 37 42 47 42 42 38 37 40 40 37 34 38 40 36 33 33 37 36 36 37 36 35 35 37 36 36 38 39 39 43 45 45 44 43 43 41 42 43 44 44
39 38 40 42 40 41 36 41 48 40 41 48 47 42 45 45 45 45 44 46 44 44 45 45 41 38 39 40 41 41 41 40 38 38 38 38 40 40 41 42 45 47 49 50 49 48 47 46 46
37 40 42 43 44 43 42 43 51 55 49 46 45 47 50 49 48 46 45 47 47 47 47 48 49 47 47 48 47 46 48 45 44 43 42 39 41 42 43 44 43 45 46 48 51 55 54 52 50
42 41 42 43 45 46 48 48 47 53 60 57 52 56 56 54 52 51 48 46 49 50 52 52 51 49 50 52 54 54 53 54 51 49 50 48 45 45 46 47 47 46 47 49 49 47 48 53 59
50 46 42 42 48 46 44 48 51 55 59 57 58 65 66 64 63 60 56 55 54 56 54 52 50 51 51 53 54 53 56 60 61 58 55 54 54 52 51 52 51 50 49 48 49 49 50 52 52
47 40 45 40 41 43 39 37 44 53 51 58 61 68 68 69 71 70 67 63 62 64 63 59 59 58 59 59 62 59 53 53 56 60 63 58 52 53 55 57 57 56 53 51 50 49 49 51 52
50 52 45 44 50 45 46 47 53 64 57 51 56 67 73 76 74 77 76 73 72 70 70 69 67 68 67 65 67 67 67 61 56 57 58 61 61 60 58 57 58 58 56 55 59 58 55 55 51
51 57 58 61 58 57 59 55 62 68 63 68 69 64 71 74 75 74 73 77 80 80 79 79 78 77 75 73 73 72 70 72 72 70 68 67 68 70 67 67 68 67 66 64 66 63 60 63 64
61 63 65 68 65 65 72 75 64 71 76 83 85 78 72 73 79 80 82 81 81 82 81 84 86 87 86 86 82 82 82 82 83 83 81 80 80 75 74 73 73 75 75 76 76 73 69 68 66
73 75 76 80 77 73 78 86 78 86 91 90 86 84 78 81 81 82 83 86 86 87 87 87 81 83 84 85 87 89 89 87 87 86 88 85 85 89 87 84 85 82 82 82 80 80 78 77 76
79 77 84 90 87 87 94 93 92 96 95 91 89 85 83 80 89 86 88 88 91 92 91 94 95 93 93 93 94 93 91 92 94 95 93 91 89 91 94 97 97 95 92 90 90 89 87 84 84
81 83 90 97 95 93 101 104 100 99 98 95 91 90 84 89 93 94 98 98 98 100 102 102 103 106 105 105 104 104 103 102 100 102 103 102 103 104 101 103 103 100 98 99 96 96 94 95 93
90 94 101 104 102 104 102 106 101 102 101 97 91 90 90 92 100 108 105 106 109 107 109 111 107 110 113 115 119 114 113 113 114 111 109 116 112 109 109 109 112 113 111 110 110 107 103 102 101
100 99 103 106 108 110 111 106 102 99 99 100 97 97 104 106 104 106 105 109 112 114 117 120 119 118 117 116 118 121 124 122 123 122 121 122 123 125 122 120 120 122 122 122 120 119 117 116 115
104 103 112 114 113 118 115 106 103 105 107 110 109 108 108 106 114 115 112 111 114 117 118 117 122 125 125 127 127 127 127 129 128 127 128 125 130 131 134 135 132 130 129 129 128 126 126 124 122
108 111 121 123 119 118 119 114 108 112 116 119 117 113 110 109 108 107 109 113 118 121 120 119 121 126 127 128 131 135 140 135 141 142 141 140 134 132 135 134 138 142 139 140 138 133 134 131 131

GFSSGP_250_spd_021.txt.gz
Wind_Speed
16 15 15 16 16 14 15 12 8 7 8 9 15 15 13 14 9 6 11 14 20 24 30 37 43 49 50 55 58 60 63 65 64 65 64 65 65 64 64 63 61 59 58 58 58 57 55 56 56
16 16 15 16 16 14 14 14 12 8 5 8 9 15 15 13 15 12 8 10 14 21 25 30 38 43 50 54 55 60 61 64 67 67 65 66 68 68 68 68 67 65 63 62 62 61 60 61 60
16 16 14 15 14 13 13 14 14 11 6 4 7 10 16 16 16 14 13 12 12 16 20 25 31 36 42 48 56 59 60 63 65 69 68 68 70 71 72 71 71 70 68 67 66 66 64 63 63
18 16 15 14 13 12 13 12 12 12 7 4 3 5 14 18 16 15 15 16 16 15 17 20 26 28 35 42 48 53 60 64 65 67 70 70 71 72 73 72 74 72 71 70 70 70 69 67 67
16 15 15 16 13 12 12 11 12 12 12 7 2 4 5 12 19 19 19 19 20 21 20 20 20 23 27 35 40 46 53 57 61 66 68 69 71 73 73 74 77 76 75 76 75 73 73 73 72
17 15 15 17 18 13 14 12 10 11 10 13 4 5 4 5 8 15 20 20 22 24 24 25 25 23 24 26 33 39 43 50 56 59 62 67 71 73 72 73 76 77 77 78 78 77 77 77 77
15 16 14 15 19 16 14 14 9 8 9 13 13 3 4 6 8 9 12 18 22 24 27 28 28 29 27 25 28 31 37 41 45 52 58 61 62 66 70 75 76 75 76 77 77 77 78 79 78
17 15 16 14 18 20 17 16 15 8 9 14 12 9 5 10 14 15 16 18 18 22 26 29 30 31 32 32 30 30 32 36 39 42 45 51 57 60 61 64 66 70 75 77 77 78 78 77 78
20 18 18 17 17 19 21 20 16 10 9 16 14 17 12 9 13 16 18 20 21 22 23 25 28 32 33 33 35 34 34 34 34 36 39 42 45 49 53 57 58 60 61 64 70 77 80 78 77
22 21 20 18 21 21 24 24 23 16 11 12 14 19 23 24 18 16 19 23 24 25 25 26 28 28 29 34 36 36 35 37 37 37 39 38 40 41 43 47 50 53 55 58 59 60 64 68 72
21 20 20 21 21 23 24 26 26 26 20 18 19 22 27 27 27 24 21 20 25 24 25 29 29 29 30 30 31 37 41 38 39 41 41 43 44 44 44 44 45 47 49 51 53 54 56 58 60
22 22 23 22 22 26 27 27 28 29 29 25 27 29 30 31 31 31 31 27 24 25 28 30 31 32 31 31 31 31 32 36 42 44 44 45 47 48 47 46 46 47 46 47 46 47 49 51 53
27 25 24 23 22 26 29 29 31 29 28 31 31 33 35 35 36 35 34 35 35 36 33 32 34 35 35 37 35 34 35 36 39 40 42 45 47 49 51 51 52 52 51 49 49 49 49 48 50
31 30 30 30 30 32 33 34 36 34 30 30 32 34 37 38 36 36 36 37 37 38 41 40 39 39 40 41 41 42 40 39 39 41 42 43 44 46 48 51 52 53 54 55 55 53 53 52 50
33 31 30 32 34 32 34 38 39 36 37 36 37 38 38 40 40 38 39 40 41 41 42 44 44 44 46 46 47 47 48 48 46 46 44 44 46 48 49 50 51 51 51 54 57 56 57 56 56
34 35 33 31 32 33 34 40 40 38 37 36 37 41 43 42 43 44 44 45 44 46 47 47 47 49 50 49 51 53 53 52 53 52 50 50 51 49 49 50 52 53 54 56 57 55 57 59 59
38 36 40 41 39 36 35 39 44 39 36 36 36 37 37 40 42 42 44 43 42 43 48 52 53 52 52 56 57 57 58 58 57 58 59 58 57 57 56 55 55 53 53 56 59 59 58 56 60
40 39 41 43 43 39 37 37 38 41 40 39 39 39 37 40 42 41 43 46 48 49 48 50 52 53 57 58 59 63 64 63 64 63 63 63 64 64 64 63 60 59 57 57 58 58 59 62 61
44 43 42 45 46 41 40 38 39 41 43 45 45 46 46 46 47 48 49 51 55 54 55 55 56 60 63 62 65 63 66 69 70 69 69 69 69 68 67 67 67 65 64 63 62 62 62 61 61
47 46 47 47 46 45 45 41 48 51 51 51 51 54 55 58 55 57 59 59 59 61 64 65 66 66 64 67 70 70 70 71 73 76 76 76 75 75 75 75 74 73 72 69 67 68 68 68 67
43 46 47 47 50 49 45 43 50 53 56 61 59 62 61 62 65 67 68 70 70 70 68 71 72 73 73 74 71 75 78 77 78 80 81 83 82 82 82 82 82 82 81 80 78 74 72 73 73
40 45 45 51 50 48 49 51 49 58 59 62 66 70 70 70 73 77 79 81 81 81 79 81 81 84 81 82 84 85 80 84 87 87 87 88 90 90 90 90 90 89 89 88 86 83 80 79 78
49 50 52 52 53 49 50 54 53 56 59 60 62 65 69 69 74 80 85 81 79 82 83 81 81 87 87 88 85 86 91 87 92 91 93 94 95 97 98 98 98 97 95 94 94 92 90 85 85
45 43 44 44 47 39 46 47 40 50 56 52 59 64 65 72 79 78 75 79 80 84 82 82 85 83 83 85 86 90 91 96 98 99 98 98 100 101 103 104 106 107 105 103 101 99 97 96 93
60 59 64 55 54 49 53 50 56 59 65 64 71 70 72 80 83 82 85 84 83 86 87 90 89 93 92 88 90 91 92 91 98 105 107 108 108 110 109 109 110 112 114 115 112 109 107 104 103
68 73 77 79 75 72 69 63 70 68 76 77 84 90 91 93 90 94 92 89 93 94 95 95 99 96 96 98 95 96 93 96 97 100 113 113 118 118 119 118 117 117 118 119 121 122 120 116 114
77 84 84 84 88 90 74 68 65 79 87 90 91 102 102 103 108 108 108 106 102 100 101 101 100 101 103 104 103 104 104 103 103 103 108 120 122 125 128 129 129 128 126 125 125 126 127 127 126
78 75 88 96 99 91 87 81 80 87 96 100 105 111 117 121 123 123 124 119 113 111 110 111 113 115 115 113 112 111 109 109 110 112 114 114 115 125 134 139 139 137 135 135 135 133 132 132 131
78 75 87 85 88 95 94 82 90 95 103 106 111 119 123 125 134 133 133 124 124 121 121 122 123 122 119 117 117 116 115 114 113 112 110 111 115 119 124 133 145 148 146 145 143 142 141 141 139
89 87 90 91 91 96 100 90 100 104 108 112 118 125 127 137 137 131 126 127 130 134 133 130 123 118 116 115 114 113 111 110 109 108 108 109 110 112 116 122 129 137 152 155 153 152 146 146 146

GFSSGP_250_spd_024.txt.gz
Wind_Speed
15 13 14 14 15 14 12 11 9 8 9 10 10 13 15 13 7 3 12 17 20 22 25 30 35 39 43 44 46 52 56 60 64 65 63 66 65 65 62 61 60 59 58 56 55 56 55 56 56
17 15 14 13 13 13 14 12 9 6 7 7 9 11 14 15 14 9 6 11 14 21 23 27 32 38 42 45 47 51 56 59 61 64 65 65 65 66 66 67 67 66 63 61 60 60 60 60 60
17 16 15 13 12 11 13 14 14 11 7 6 7 8 13 17 15 15 12 11 12 14 20 26 29 33 39 44 48 50 53 59 61 62 67 66 65 65 69 67 68 69 70 69 67 65 63 63 63
17 15 14 14 12 11 11 11 13 12 8 7 6 5 9 15 19 17 17 17 16 16 17 20 24 29 33 38 45 49 53 55 60 63 65 69 68 68 69 70 69 70 70 70 71 71 68 66 67
16 14 12 13 14 10 11 9 10 14 12 5 5 7 8 11 18 21 21 21 20 19 18 17 22 26 28 29 36 43 49 54 59 61 64 67 68 69 72 72 71 73 73 74 74 75 73 72 71
17 17 13 13 13 13 11 8 9 10 13 11 7 8 7 10 10 15 20 21 22 23 23 22 19 19 21 27 32 36 41 46 53 58 62 66 68 69 72 74 75 74 74 76 76 77 77 78 77
15 17 16 14 13 15 12 10 7 10 11 13 13 8 9 12 12 12 13 17 20 21 23 25 26 26 26 24 23 26 31 39 44 49 55 61 64 69 71 73 74 76 77 78 79 78 78 79 80
16 16 16 16 15 16 16 12 9 8 13 15 14 13 8 14 14 15 17 17 18 21 21 22 24 28 30 31 31 28 28 30 34 39 43 47 54 62 66 68 72 76 78 78 78 78 78 80 81
18 17 17 16 16 16 17 16 13 10 13 20 21 20 16 9 9 13 16 17 19 21 23 24 25 25 25 29 34 36 34 32 32 33 35 39 39 40 48 56 62 68 69 70 74 78 81 82 82
19 17 16 16 16 17 17 17 16 13 16 19 23 25 23 22 21 18 17 18 19 20 23 27 26 26 26 26 27 29 35 38 38 38 38 39 40 40 41 42 43 49 57 62 67 69 68 69 71
18 17 17 16 16 16 19 19 17 18 19 20 23 28 29 27 24 24 25 24 25 27 26 24 25 27 27 27 27 28 29 30 36 41 42 43 46 45 44 45 44 44 45 47 50 55 59 63 65
20 19 19 20 20 21 20 19 20 21 24 23 25 27 29 32 32 31 32 32 32 31 31 30 30 30 30 32 32 32 32 32 32 35 38 43 47 49 49 49 50 50 49 49 48 49 50 51 53
25 22 23 23 25 27 27 26 26 26 27 29 31 30 28 30 31 32 33 34 34 36 36 37 37 36 36 36 36 37 38 38 37 36 35 39 43 45 47 50 53 54 53 54 54 54 54 54 52
27 27 28 27 28 30 31 31 28 27 28 29 31 33 33 32 32 33 34 34 35 35 37 40 41 42 43 42 41 41 42 43 43 44 44 42 41 43 47 50 50 51 53 56 57 59 59 58 58
31 34 34 32 30 29 30 32 31 31 32 33 33 34 35 36 36 36 34 35 37 38 37 39 42 45 48 48 48 48 46 46 49 50 50 50 51 49 47 48 51 52 54 55 54 56 59 62 62
32 34 36 35 34 34 35 41 36 36 35 37 37 37 35 36 38 40 39 35 32 33 36 38 40 44 47 50 52 54 55 55 54 54 55 56 55 55 54 54 54 53 53 54 57 59 59 57 59
35 37 39 38 37 36 36 43 42 39 39 41 40 38 35 36 39 40 41 42 42 43 44 45 47 49 52 55 59 61 62 62 62 62 62 60 61 62 61 61 62 61 60 60 57 57 60 59 60
37 38 39 43 41 39 39 38 42 42 42 40 37 38 40 44 45 44 43 46 49 50 52 53 55 58 58 59 59 62 67 70 71 70 69 69 69 67 67 67 68 68 67 68 66 63 62 63 64
39 39 41 47 44 40 41 40 42 45 44 42 45 46 48 50 52 54 55 54 55 57 57 57 60 64 66 66 67 69 70 72 74 75 76 76 76 77 76 74 75 75 75 74 72 70 69 68 68
42 41 43 42 44 40 41 40 42 45 48 49 49 51 50 53 57 60 63 65 65 66 68 67 69 71 75 75 76 76 78 79 79 79 83 83 84 84 84 85 82 80 81 81 80 79 76 76 74
43 43 41 39 42 40 41 43 51 52 55 57 56 57 59 62 64 63 64 68 72 76 74 73 76 79 79 83 85 87 89 86 87 87 87 87 89 92 92 92 90 89 88 89 88 87 87 86 83
42 42 40 40 40 43 45 47 49 57 62 63 62 61 62 65 64 65 66 72 71 76 82 83 79 80 79 84 89 94 94 94 96 95 97 97 90 90 98 99 100 97 96 95 96 96 95 94 93
45 46 44 44 48 49 47 47 44 51 54 55 57 56 58 59 63 65 58 58 70 73 72 77 75 76 76 84 74 76 85 89 88 88 87 90 98 107 108 100 101 105 106 103 103 103 104 103 103
48 53 53 48 48 42 57 58 58 60 61 69 62 68 73 79 82 76 70 67 68 71 71 78 78 82 83 85 85 84 85 88 89 92 93 89 88 89 98 102 104 106 108 113 111 111 110 111 111
53 51 53 53 58 56 59 57 64 70 72 82 88 89 87 82 85 76 72 70 73 75 78 83 87 90 91 96 98 94 90 89 92 95 96 98 99 103 96 98 106 110 111 116 118 120 119 117 116
60 59 63 58 60 62 63 63 67 65 71 76 80 87 91 89 76 79 76 77 85 88 87 95 101 103 100 104 101 99 98 102 105 105 105 104 106 106 104 103 103 104 114 115 122 124 127 126 126
67 69 70 63 58 55 59 63 61 67 71 76 82 80 76 77 82 86 89 93 97 98 110 112 113 118 114 111 108 107 107 108 110 108 108 107 107 109 108 109 111 115 113 117 120 126 131 133 133
74 76 80 83 82 76 72 75 74 74 81 86 87 86 89 90 93 97 101 107 114 116 117 125 126 130 125 121 117 113 114 113 109 108 108 107 107 108 109 111 115 119 119 121 125 126 132 138 142
73 76 84 90 89 90 85 82 91 98 100 93 90 94 91 95 100 106 111 117 121 123 127 133 137 139 135 124 118 111 108 102 100 97 97 97 98 101 103 105 108 110 112 116 121 124 133 138 142
86 85 89 91 87 88 93 79 91 97 105 101 98 96 98 103 106 111 119 125 130 131 135 140 142 148 135 118 111 107 101 97 95 94 93 94 94 95 97 98 99 101 103 107 111 116 124 129 137

GFSSGP_250_spd_027.txt.gz
Wind_Speed
12 11 10 11 10 9 9 9 7 10 10 9 8 9 11 11 8 5 9 14 17 20 21 25 28 31 34 38 44 48 51 59 62 60 59 58 58 60 61 62 61 60 58 56 57 57 58 56 55
12 12 10 10 10 8 7 8 8 8 8 8 7 9 10 13 12 10 8 11 16 16 18 21 24 29 33 36 39 43 47 52 58 60 61 63 62 59 62 64 62 61 60 58 58 59 58 58 59
13 11 10 8 9 8 8 9 11 9 7 6 6 7 10 14 16 13 10 10 13 14 18 19 21 24 29 34 38 42 43 46 51 58 61 64 65 66 65 64 64 66 65 64 63 62 61 61 60
13 10 9 7 7 7 7 9 9 10 8 6 7 5 7 11 15 18 15 12 10 11 13 15 19 23 24 27 32 37 41 45 48 50 55 60 63 66 68 69 70 69 68 67 67 67 66 66 65
15 11 10 7 9 6 5 7 8 10 8 6 8 8 8 9 10 14 17 17 15 13 12 11 17 20 20 23 28 31 35 40 45 50 51 54 59 62 63 66 69 70 73 76 75 73 72 73 72
15 14 12 10 9 7 4 4 7 10 12 9 6 10 10 10 10 11 8 13 18 19 20 19 17 17 22 25 26 26 29 34 38 43 48 53 56 59 62 64 65 69 70 72 74 77 77 76 76
14 15 13 10 10 9 6 4 6 11 11 10 10 10 10 13 10 12 14 14 10 10 15 19 22 24 23 21 24 26 27 29 32 39 41 45 50 54 58 63 66 68 71 73 74 75 77 78 79
12 14 15 13 10 10 10 7 7 13 16 16 10 9 9 7 13 11 11 13 15 16 14 14 17 19 22 25 28 28 27 27 29 31 35 41 43 46 53 56 61 64 67 72 75 75 77 79 82
13 13 12 13 13 12 11 8 9 11 14 20 20 16 12 9 8 9 12 13 15 17 19 19 19 18 19 20 22 24 26 29 32 33 34 35 37 41 46 48 50 54 60 65 69 71 73 76 79
14 13 11 11 12 12 13 12 10 12 13 17 24 24 22 19 18 17 16 16 17 17 19 20 21 21 20 19 20 21 23 26 29 31 35 38 39 37 38 41 44 46 49 53 57 60 65 68 70
14 12 12 12 11 11 13 13 11 14 14 15 17 22 25 22 21 22 25 25 25 25 25 25 24 24 24 24 25 26 25 25 27 30 32 35 37 40 42 44 45 44 44 46 47 48 51 55 59
15 14 14 15 15 15 14 15 18 20 18 19 20 20 22 25 27 25 23 25 27 28 29 29 29 30 30 30 29 30 32 33 32 32 32 34 36 38 41 42 46 50 51 50 50 51 51 52 52
18 17 18 18 20 19 20 20 21 23 22 22 23 24 26 27 27 29 30 30 29 29 30 32 34 33 32 33 34 35 36 37 38 39 39 39 39 40 40 41 43 46 47 50 53 55 57 57 56
19 20 21 21 24 24 25 24 25 23 24 25 27 29 31 31 32 32 32 33 33 34 37 40 40 40 43 43 42 41 42 43 44 45 47 49 48 47 47 46 46 46 47 49 51 53 55 56 59
22 24 24 23 22 26 29 28 28 30 32 32 33 31 32 33 34 35 36 37 38 39 39 41 45 46 47 49 50 50 52 52 52 51 52 54 55 56 57 56 55 53 52 53 52 54 55 56 58
28 30 29 27 26 25 28 29 29 30 33 35 37 36 36 37 36 37 38 40 41 43 44 43 45 48 51 53 54 55 56 57 60 62 62 62 62 63 63 63 64 63 60 58 56 58 56 57 58
30 33 32 29 26 26 29 36 34 34 35 34 35 37 39 37 37 38 42 44 44 44 45 48 49 52 53 55 58 60 63 65 65 66 67 68 68 69 71 71 72 72 70 68 65 64 62 61 62
32 30 31 33 29 29 32 35 38 35 34 35 36 38 41 43 45 46 47 49 51 53 53 52 56 59 60 61 62 65 67 72 73 72 73 75 76 78 77 76 73 77 77 78 77 75 73 68 66
32 29 32 36 33 32 33 32 39 36 36 36 38 43 46 48 49 50 53 56 57 58 59 59 64 66 68 69 70 72 74 78 79 80 81 82 84 85 86 86 84 85 86 84 84 82 84 82 77
35 32 37 38 38 37 37 32 38 39 40 41 46 49 51 53 54 53 56 59 60 61 65 67 63 63 72 74 72 76 79 80 79 74 79 87 86 92 94 94 93 92 92 92 92 94 92 88 88
36 38 40 38 41 39 37 34 39 40 42 45 50 55 55 57 56 57 54 53 59 61 60 59 62 65 66 62 63 64 62 70 78 84 79 77 74 78 89 95 98 96 97 98 101 99 99 97 97
36 44 42 41 38 39 40 36 41 47 48 50 50 46 51 56 54 60 63 63 68 74 66 74 69 57 64 59 61 63 67 68 73 78 78 75 74 86 82 81 90 94 99 101 101 104 106 106 99
45 45 41 34 34 35 43 41 42 45 48 48 55 60 58 66 65 68 68 72 78 76 77 70 62 57 57 56 64 69 75 85 93 93 94 92 86 86 81 86 91 93 95 98 102 105 108 110 106
51 50 47 41 38 35 41 42 36 44 51 58 60 60 65 67 69 68 69 66 65 63 67 66 66 64 64 66 71 82 92 96 95 102 100 96 90 87 87 92 91 93 94 99 101 106 107 109 112
53 51 50 47 47 47 47 48 47 51 54 57 58 60 63 66 65 71 75 78 83 77 72 70 64 68 76 79 80 90 97 104 108 109 112 101 95 92 93 94 95 96 99 103 102 106 109 112 112
55 54 56 56 54 54 55 53 60 63 66 67 68 66 72 76 81 82 88 93 93 92 74 69 73 79 82 83 90 95 103 111 117 111 112 105 99 97 95 97 100 104 106 106 108 109 109 115 122
60 60 65 62 60 59 56 57 64 69 71 75 78 80 85 85 87 86 86 89 89 95 82 77 79 84 90 93 101 106 114 121 125 119 119 105 99 98 98 100 102 105 106 106 108 110 113 116 118
65 67 68 70 70 70 65 58 65 66 74 82 87 83 80 84 85 88 89 88 87 83 83 87 88 92 98 102 109 116 121 124 128 127 119 105 100 99 99 98 98 97 97 99 101 104 107 110 113
71 72 74 76 75 73 71 72 74 68 73 78 83 86 87 87 89 88 85 88 87 85 88 93 100 104 107 113 117 121 130 134 133 132 115 103 98 95 92 92 93 93 93 93 95 99 102 103 105
78 78 81 82 81 78 77 73 73 73 77 82 85 87 90 92 92 85 84 85 89 89 98 106 110 114 119 123 126 132 135 140 136 119 105 99 94 93 92 93 93 94 94 94 94 95 98 101 103

GFSSGP_250_spd_030.txt.gz
Wind_Speed
11 10 10 10 9 8 7 8 8 8 8 5 7 9 7 9 10 7 9 12 15 18 18 20 22 26 29 34 38 41 51 56 57 59 61 62 57 55 53 54 57 57 57 56 55 53 53 54 53
10 10 9 10 8 6 6 6 6 6 7 6 7 8 9 6 8 8 5 9 11 13 16 17 18 22 27 31 35 40 45 47 56 57 60 60 60 57 56 57 59 60 60 59 59 59 58 57 58
11 10 8 8 7 4 5 6 5 6 5 5 6 7 7 9 7 7 6 5 7 10 12 13 15 17 21 26 31 36 42 47 48 56 61 62 63 61 59 59 60 62 65 63 64 64 63 62 62
9 9 8 9 8 5 6 6 5 5 7 6 6 8 6 5 8 7 7 7 7 11 12 12 15 16 17 21 26 30 34 40 45 50 53 61 63 61 60 60 62 64 64 67 68 68 66 65 65
9 7 7 6 7 7 8 8 6 4 5 6 6 8 8 7 5 4 5 8 10 10 10 13 15 16 17 21 23 25 29 34 38 44 47 51 56 62 66 67 67 67 69 67 69 71 70 70 70
10 9 7 6 6 6 8 10 9 7 5 6 7 8 9 10 7 5 2 4 6 10 12 13 13 15 18 20 20 22 25 29 32 37 40 44 50 52 56 60 65 69 72 72 73 72 73 74 75
11 9 10 8 8 8 8 10 12 9 8 7 7 7 9 8 7 6 4 1 4 5 6 8 10 13 16 19 21 22 24 26 28 32 36 40 44 49 51 56 59 61 62 65 69 71 74 78 80
10 10 11 10 8 8 8 10 11 11 11 9 7 7 5 5 6 7 7 8 6 6 6 8 9 12 14 16 18 21 23 25 27 29 32 33 37 43 46 50 55 58 61 64 66 69 70 70 72
10 10 9 8 5 5 7 9 11 10 11 12 14 13 12 10 11 12 13 14 13 13 12 12 14 14 13 14 17 19 21 23 25 28 31 31 34 35 38 41 44 49 53 58 63 66 68 70 73
12 9 7 4 5 4 3 4 7 9 10 11 13 14 14 14 15 16 17 19 18 19 19 20 20 20 20 20 19 20 22 23 25 27 29 31 33 35 38 40 42 41 44 47 51 55 60 65 69
14 11 8 7 6 5 4 6 8 9 10 13 14 15 16 16 15 15 16 20 23 24 26 27 28 28 29 28 28 29 29 28 29 29 29 31 34 37 38 37 39 44 46 47 47 48 51 53 55
14 13 11 9 10 8 7 9 13 13 14 14 13 13 15 18 21 21 20 19 19 22 24 27 29 29 30 31 32 33 34 36 37 38 39 38 39 39 40 42 44 44 45 46 49 52 54 54 55
15 15 14 13 13 9 12 13 14 15 17 19 19 21 22 24 24 26 28 28 27 26 26 25 28 30 31 31 33 36 38 38 39 40 41 43 46 47 46 46 46 47 50 52 53 52 53 55 57
16 17 17 18 15 13 15 16 18 18 20 21 23 24 26 28 28 29 30 31 32 33 33 33 32 32 33 35 36 38 40 43 44 45 46 47 48 49 50 52 53 54 55 56 56 58 59 58 58
17 18 19 19 17 17 19 19 20 21 23 25 26 26 28 30 31 32 34 34 34 35 36 37 38 39 43 45 45 44 43 43 48 50 51 52 56 57 59 60 59 60 60 61 62 64 64 65 66
20 22 21 18 18 21 22 20 21 23 26 28 28 29 30 30 32 31 32 34 36 39 41 42 42 43 45 51 53 55 56 56 56 57 61 64 64 66 63 64 66 68 70 67 68 68 66 68 70
24 27 21 19 17 18 21 22 25 27 29 30 30 31 32 33 32 31 33 36 39 41 45 47 49 51 52 53 56 61 60 63 63 64 65 67 72 74 73 76 76 78 76 77 76 76 72 72 74
28 27 27 22 19 20 23 28 31 30 31 34 32 33 34 34 34 36 38 40 43 44 44 47 51 52 54 54 54 56 60 65 66 68 69 69 71 76 79 80 80 82 87 85 86 84 83 82 83
29 29 31 26 22 22 25 31 35 33 35 35 34 34 36 37 39 41 44 44 45 45 49 51 54 56 57 55 61 61 62 63 63 68 71 71 72 77 79 80 81 85 85 87 92 89 87 86 83
32 29 33 31 26 25 29 32 39 35 36 36 37 38 40 42 43 43 44 39 43 49 53 56 59 61 63 64 67 69 76 74 71 77 76 78 75 79 72 74 82 83 89 94 95 99 96 96 94
33 31 34 31 33 30 32 34 40 39 37 38 38 40 43 46 48 44 43 51 51 55 56 61 61 63 60 61 71 77 81 73 75 74 77 80 79 80 82 76 77 79 82 90 94 97 95 99 96
32 36 36 35 34 34 37 30 43 43 41 42 42 45 46 46 47 51 52 54 56 54 53 56 60 59 70 72 73 72 74 76 78 78 71 77 79 76 84 85 85 86 89 92 94 101 103 100 104
37 41 40 39 37 38 40 38 38 47 47 46 44 45 47 47 51 55 57 57 58 56 56 58 66 74 80 79 82 82 81 89 90 85 81 78 80 85 85 88 88 95 92 92 93 96 95 104 109
44 47 49 45 45 38 48 48 35 48 52 50 48 48 50 54 54 55 58 60 62 63 64 74 79 83 82 83 83 87 90 82 77 77 84 79 83 83 86 91 94 97 98 98 102 99 101 104 106
50 49 48 48 49 46 50 51 45 49 50 51 53 54 57 59 62 69 72 71 67 69 70 81 83 85 85 88 89 88 85 81 82 83 85 87 90 93 95 96 99 100 101 100 100 107 105 107 110
52 52 51 52 54 52 51 50 53 57 57 60 61 64 66 71 72 70 73 74 77 81 86 86 88 91 89 92 91 91 91 91 87 91 90 95 97 101 101 105 104 104 103 97 103 107 109 110 110
53 52 59 57 54 54 55 56 58 61 64 64 65 62 62 65 68 74 75 77 79 82 86 89 92 94 94 96 96 92 85 85 91 94 101 104 108 116 116 109 108 99 96 94 94 96 98 102 103
57 60 61 61 61 60 59 59 61 63 67 71 74 76 77 75 71 72 74 73 76 78 84 89 92 96 93 95 101 101 99 97 98 101 110 112 124 124 119 110 105 99 97 95 94 90 92 94 96
65 64 66 69 69 67 65 65 65 69 71 75 77 79 79 79 80 78 78 80 83 87 87 91 91 92 102 101 105 94 92 100 108 111 117 125 126 120 119 107 99 98 96 94 92 92 92 94 96
64 64 70 73 75 74 71 67 73 74 77 80 84 85 82 78 80 84 85 85 90 90 93 89 94 92 94 94 94 96 101 107 112 117 120 133 128 128 111 104 98 94 93 93 94 93 94 96 97

GFSSGP_250_spd_033.txt.gz
Wind_Speed
14 12 13 12 12 12 10 9 9 9 8 6 6 4 3 8 10 9 7 9 11 13 15 15 17 24 29 34 37 38 45 52 53 59 58 56 58 57 54 50 52 57 56 55 53 51 52 51 52
14 13 12 13 10 12 10 8 8 8 6 5 5 5 2 3 9 8 5 7 9 9 11 13 14 18 26 31 38 39 45 47 55 59 60 58 61 63 62 58 48 54 57 55 56 56 56 55 56
12 12 11 11 8 9 9 7 8 8 8 7 4 2 2 2 5 11 10 8 9 12 12 13 15 17 21 28 31 37 40 44 50 57 59 62 62 63 60 58 54 52 55 59 59 59 61 60 59
12 11 11 11 9 8 8 7 6 6 7 7 6 6 3 3 0 7 10 11 11 10 9 11 13 16 19 23 31 36 40 42 46 51 56 59 59 60 64 65 64 62 59 59 60 62 65 65 66
11 10 10 11 10 9 9 7 6 6 5 5 5 6 5 2 1 1 4 8 11 11 12 12 11 13 14 18 22 29 36 41 45 49 53 54 56 62 64 65 65 64 65 63 62 63 66 68 69
11 11 9 10 10 10 9 9 7 5 2 3 3 3 4 5 1 1 2 3 5 9 12 12 15 16 16 17 20 22 27 31 38 43 49 54 57 57 60 63 66 69 69 68 67 66 68 70 70
14 12 10 11 13 11 10 9 8 8 6 3 2 4 4 4 3 1 1 3 6 7 8 11 14 17 19 20 22 25 26 28 31 35 40 45 50 55 56 59 62 65 67 70 73 73 73 72 73
16 13 11 10 10 12 11 9 7 8 8 6 6 6 6 4 5 6 5 4 5 6 8 9 11 15 17 20 24 25 27 28 31 33 35 36 39 43 48 53 56 60 63 66 69 71 73 74 75
14 14 11 9 8 8 9 8 9 8 9 8 7 7 7 9 11 11 12 13 13 13 13 14 15 16 17 18 20 23 26 29 31 33 35 36 38 40 43 45 48 51 55 58 62 64 66 69 71
16 15 13 10 9 7 7 6 7 6 8 9 10 9 8 9 11 12 14 15 16 19 20 21 21 21 21 22 23 23 22 24 27 29 31 33 35 38 40 43 46 47 49 52 55 58 60 62 64
16 15 14 13 12 10 9 9 10 9 10 10 11 13 13 12 12 12 12 14 15 17 19 20 21 22 24 25 26 27 30 31 30 30 30 32 33 35 37 40 43 45 47 49 52 54 56 58 60
18 16 17 15 16 13 11 12 12 10 12 10 11 11 13 14 15 15 15 16 17 19 20 21 22 21 21 22 25 26 26 27 30 34 37 37 38 37 38 40 42 44 47 49 50 50 53 55 59
20 18 19 18 18 14 14 16 14 13 14 14 16 16 17 19 22 22 21 20 20 19 18 20 20 22 23 23 24 25 29 30 30 29 31 34 37 39 41 42 43 45 46 49 53 55 56 57 57
20 19 21 21 19 14 15 16 16 17 18 19 19 20 20 22 22 23 25 24 23 24 22 20 19 20 25 27 28 29 31 34 35 38 39 40 41 42 42 44 47 47 48 50 52 56 59 61 63
21 22 21 21 18 17 16 16 20 20 21 22 22 24 24 25 25 26 26 25 25 25 26 28 29 30 30 32 33 37 40 44 45 47 47 48 48 52 53 51 52 53 55 57 59 60 62 63 65
23 24 23 23 20 20 19 19 22 23 22 23 23 25 25 27 28 28 27 26 27 28 31 33 36 38 39 42 44 46 46 50 52 55 57 56 58 56 58 58 59 60 56 57 61 64 66 70 70
25 27 30 25 22 21 22 22 23 23 24 25 27 27 27 29 30 27 27 28 29 31 34 33 36 37 40 42 44 47 50 54 54 58 60 62 62 68 68 66 68 67 66 71 71 73 73 73 73
29 32 32 28 26 24 25 26 25 25 26 28 28 28 30 31 30 30 30 31 32 33 35 33 37 39 41 43 45 49 50 50 57 57 61 57 64 69 73 75 78 80 81 82 79 79 79 80 81
34 34 34 32 28 26 28 30 29 29 30 31 31 28 29 31 32 33 34 35 35 35 37 37 46 45 46 47 46 47 52 56 60 61 65 69 73 75 73 75 79 77 83 87 90 87 89 91 91
35 35 38 35 32 29 31 31 34 29 33 34 32 33 33 32 33 36 36 38 40 38 37 44 46 48 51 50 52 51 54 59 70 68 69 70 74 77 79 78 78 80 85 87 89 90 90 95 96
37 35 38 36 32 33 33 32 33 38 34 37 37 36 37 35 36 38 40 39 40 41 45 48 52 54 54 55 56 59 60 65 76 82 80 79 81 83 88 87 88 86 88 92 92 95 99 96 101
39 37 40 38 35 36 32 30 35 42 39 40 42 42 41 40 38 39 41 44 44 47 50 53 57 58 60 63 65 68 67 75 82 83 84 87 89 91 91 92 88 93 84 92 94 98 101 106 106
41 42 44 42 39 38 35 35 37 44 47 46 47 49 49 44 43 43 45 46 48 50 54 59 58 60 63 68 71 73 78 87 89 92 91 94 92 93 93 95 96 99 95 89 91 100 107 106 112
47 45 46 43 39 36 41 44 37 42 51 50 54 55 56 52 51 50 51 53 54 57 59 63 68 68 70 73 74 80 86 89 91 91 94 95 96 96 98 99 97 101 102 107 106 112 111 112 112
51 53 50 46 42 40 44 48 39 43 52 55 57 60 59 59 58 57 57 59 63 65 67 70 73 76 77 79 80 83 85 87 91 93 93 100 99 99 91 97 98 107 112 116 110 112 120 128 119
55 55 56 53 51 48 45 42 41 50 52 57 59 62 63 64 64 63 64 66 66 62 62 68 73 77 79 80 83 85 88 92 93 94 94 94 101 101 101 113 111 112 107 109 107 110 115 121 126
55 55 62 60 56 53 49 47 47 51 56 56 59 62 64 65 67 68 67 70 74 77 76 72 74 76 80 83 89 94 98 102 103 100 98 96 93 97 94 102 97 107 105 114 114 110 118 106 112
62 62 66 65 62 59 53 51 51 55 58 61 63 64 67 70 70 69 72 75 75 76 76 79 81 85 86 88 93 98 98 101 100 100 102 99 97 99 100 103 104 114 116 118 118 116 108 103 103
62 62 64 65 63 63 59 57 58 59 60 64 66 69 72 72 73 74 73 74 78 81 85 84 88 89 90 96 104 111 114 112 111 111 104 106 105 105 107 114 120 124 125 122 116 113 103 97 97
59 61 64 65 64 65 66 56 60 60 64 67 71 75 78 78 77 78 79 80 83 87 89 93 95 98 102 102 104 101 104 109 113 116 113 112 107 105 116 125 129 133 128 117 114 105 102 99 99

GFSSGP_250_spd_036.txt.gz
Wind_Speed
16 16 15 14 12 11 12 12 10 10 9 7 5 5 6 8 12 14 12 10 9 9 13 15 18 23 29 34 39 39 40 44 46 48 52 47 43 40 45 46 48 49 46 48 53 53 54 55 57
15 15 14 13 11 10 9 9 9 9 8 7 6 4 4 6 11 13 12 10 10 10 13 17 19 23 29 33 34 37 38 41 46 50 52 55 51 49 47 44 44 46 48 51 53 56 56 57 56
13 13 13 13 11 9 8 7 7 8 7 6 4 2 3 5 8 13 11 10 9 9 8 12 18 21 27 34 37 40 41 43 45 50 56 55 56 56 55 52 51 52 51 50 50 55 58 58 58
13 13 10 11 11 9 8 7 5 6 6 4 3 2 3 2 5 10 14 12 11 11 10 10 11 15 21 27 33 38 42 44 47 52 58 60 61 60 57 57 58 61 59 58 56 54 60 60 61
14 13 12 11 10 10 9 6 5 6 5 3 2 0 1 1 3 5 9 13 13 12 12 12 12 15 19 21 28 34 37 41 46 50 53 58 59 63 65 63 63 64 65 64 63 58 56 58 63
14 14 14 12 11 10 9 8 7 8 6 4 3 2 1 1 1 3 4 6 10 13 13 13 15 15 15 19 23 27 33 37 38 44 51 53 56 62 65 66 66 69 70 70 69 70 70 67 67
15 15 14 14 14 12 11 10 10 10 9 7 6 5 4 1 2 1 2 3 5 7 8 12 16 17 17 18 20 21 25 31 37 42 47 51 54 57 62 63 64 65 67 70 71 73 72 72 72
16 16 17 15 15 13 12 12 13 11 10 11 9 8 7 7 5 3 3 3 4 5 7 8 9 10 12 15 19 21 23 25 27 31 36 41 46 50 53 56 60 63 64 66 68 70 72 74 76
18 16 18 16 15 14 13 12 13 13 10 10 10 9 10 9 9 9 9 9 10 9 10 11 12 13 13 13 13 14 14 16 20 25 30 34 36 39 41 44 48 52 56 61 63 65 66 70 72
19 18 18 18 17 14 14 13 12 11 12 12 9 9 9 9 9 10 12 13 13 13 14 14 16 18 19 20 20 19 17 17 18 19 21 24 27 31 36 39 43 46 47 49 51 54 57 60 63
19 20 19 19 18 16 15 15 13 11 12 13 14 13 11 10 10 9 10 12 13 13 15 16 15 15 15 17 19 21 22 23 22 23 24 25 26 28 31 33 36 38 40 42 45 48 52 55 58
22 21 21 21 21 20 18 18 16 13 14 13 13 11 11 14 15 14 14 14 15 16 18 18 16 15 14 14 16 19 22 24 25 25 23 24 26 30 31 33 35 37 39 41 44 46 48 50 53
23 23 23 24 25 23 21 22 19 15 16 16 15 14 15 17 18 18 19 18 16 17 18 16 16 16 17 18 20 21 20 21 23 26 26 28 29 33 35 36 38 41 42 44 45 48 50 53 56
23 24 25 25 26 25 22 23 21 20 17 18 16 17 17 18 19 19 19 18 17 14 13 13 15 16 19 21 21 21 23 23 26 24 27 31 32 33 36 38 40 41 43 46 50 54 54 54 61
24 25 26 26 28 28 24 25 22 24 20 20 19 20 18 17 18 16 17 17 17 16 15 16 18 19 20 18 20 25 28 27 30 35 39 35 36 35 40 36 37 43 41 42 47 51 53 56 57
27 27 25 28 28 26 24 25 27 24 23 23 22 21 18 18 20 18 18 17 15 16 18 19 19 21 22 24 26 29 30 33 40 41 42 43 45 46 48 48 51 58 53 63 66 67 72 70 68
30 27 31 32 28 27 27 27 28 25 27 24 24 23 20 21 20 21 18 19 19 20 20 19 19 24 25 27 31 33 38 38 40 43 48 51 55 58 57 60 63 65 68 69 71 70 77 78 79
28 32 35 35 31 30 28 30 28 27 28 28 26 26 23 22 22 22 23 22 24 24 25 25 26 25 30 35 40 39 41 45 48 50 53 56 55 60 65 66 69 72 73 73 76 76 77 77 79
34 36 38 38 30 33 30 31 31 32 31 32 29 29 27 26 25 25 25 26 27 27 28 29 30 32 34 37 42 46 49 50 54 56 59 61 64 68 73 78 83 84 85 83 83 86 86 86 87
39 40 41 42 33 37 35 33 36 34 38 34 32 30 31 31 30 30 28 29 31 32 32 32 33 37 39 42 46 51 54 57 59 60 64 67 70 73 77 82 85 88 89 91 91 89 90 91 90
43 41 44 42 38 39 39 33 40 40 37 39 36 33 33 34 35 34 32 32 34 34 34 36 37 40 43 49 52 54 56 60 61 65 67 70 73 77 80 86 89 90 92 93 92 92 96 93 97
42 45 45 46 42 37 38 29 35 41 43 41 40 40 34 39 39 40 38 39 39 41 41 41 44 46 49 52 55 59 62 62 64 69 73 75 80 82 88 89 89 88 92 93 99 98 103 102 101
45 48 45 47 44 39 38 36 31 38 38 46 42 39 39 41 43 45 46 46 48 49 49 50 52 54 57 60 62 66 68 69 73 77 79 81 84 89 89 90 93 92 95 98 99 101 102 107 109
50 52 51 49 46 37 42 43 32 43 43 45 48 46 45 47 48 49 50 52 54 55 56 56 56 59 61 66 65 67 71 74 77 79 83 83 88 91 92 91 93 94 97 98 103 103 109 112 112
59 58 56 51 47 42 45 45 33 42 46 52 51 50 48 49 47 47 49 52 55 57 57 58 61 64 66 68 70 72 72 75 81 85 85 88 91 93 96 102 107 109 108 112 113 111 112 113 112
58 60 58 58 55 50 47 42 43 46 47 52 54 54 52 51 50 48 47 49 51 53 55 57 60 64 68 71 74 77 81 82 86 86 93 93 97 103 104 109 106 107 110 114 110 109 116 117 116
55 54 60 60 59 55 49 46 46 46 54 55 55 56 56 56 55 53 54 56 57 57 59 62 65 67 69 71 75 78 82 85 88 93 97 100 103 108 112 114 116 115 113 109 114 109 112 107 115
60 60 63 64 62 59 54 53 48 52 57 58 57 60 60 60 61 60 61 62 62 63 65 67 69 71 71 73 77 81 84 88 94 98 101 105 107 111 113 114 111 111 113 109 115 121 123 128 130
63 58 60 62 63 62 60 55 56 55 58 61 62 63 63 65 65 66 65 66 67 67 70 71 72 73 76 78 81 85 90 94 98 103 106 112 112 110 110 110 112 111 114 111 113 114 115 122 126
65 61 63 63 61 60 61 46 56 56 55 59 63 65 67 67 66 65 68 68 68 69 71 72 73 75 79 85 89 93 96 98 103 107 109 108 107 111 113 116 109 109 108 110 115 120 124 129 123

GFSSGP_250_spd_042.txt.gz
Wind_Speed
17 15 15 14 12 12 10 8 8 6 6 7 6 6 5 5 6 12 16 18 19 20 23 24 27 33 35 36 40 43 45 44 42 42 41 42 42 43 44 42 44 45 45 44 48 51 53 54 54
16 15 12 12 12 12 11 11 7 8 8 7 6 6 5 4 4 9 13 15 16 16 18 23 27 27 28 30 34 39 45 47 45 46 43 45 44 44 46 45 49 45 46 40 43 42 44 49 53
16 15 13 11 11 12 13 10 10 7 9 8 8 7 5 5 5 8 11 14 14 14 15 20 26 26 25 27 29 32 37 42 45 43 43 44 45 45 46 47 47 49 44 43 44 44 46 47 48
16 17 18 13 12 12 12 11 10 9 9 9 9 8 7 6 5 5 9 12 14 14 14 15 21 24 23 25 27 31 34 38 42 43 42 44 46 46 46 48 47 50 50 51 46 46 48 50 50
14 15 18 15 14 13 12 11 11 10 11 9 8 7 6 5 5 6 6 10 11 13 14 13 15 20 23 24 24 26 29 33 38 42 41 42 45 48 49 50 51 51 54 53 54 52 52 52 51
16 17 17 18 15 14 14 13 13 11 12 11 9 7 6 6 4 4 5 7 10 12 12 12 10 11 14 17 18 21 24 28 30 36 39 41 43 47 53 53 54 55 56 56 55 59 55 56 58
18 18 17 19 15 14 16 16 17 15 13 12 11 9 8 8 5 5 6 6 7 9 12 14 14 13 13 13 13 14 18 22 27 31 34 37 40 45 45 58 60 62 61 63 64 63 64 65 63
18 18 20 19 16 16 16 17 17 18 16 15 13 13 11 10 8 8 9 9 8 8 10 11 11 12 14 15 16 17 17 18 20 22 26 30 32 34 37 39 46 55 62 66 69 67 70 64 65
20 19 19 22 19 18 15 18 17 18 18 17 16 14 15 14 13 13 12 11 11 11 12 12 12 13 14 14 15 17 19 21 24 26 29 30 32 36 40 43 46 47 51 55 60 65 65 65 65
23 22 20 22 22 18 19 17 19 17 17 18 18 17 16 17 16 16 15 14 15 16 16 16 18 18 18 19 19 20 22 23 24 26 29 32 33 35 38 40 42 44 46 47 49 52 55 57 57
25 24 23 22 22 18 21 17 21 18 17 19 19 19 20 19 18 16 16 16 16 18 18 19 20 21 21 22 24 24 25 26 27 29 30 31 32 34 36 38 39 41 41 44 46 48 49 50 50
26 25 25 24 25 22 21 21 22 20 19 21 22 21 21 20 18 17 17 17 18 18 20 20 20 20 22 23 24 25 26 27 29 31 32 32 33 34 35 35 36 33 42 44 44 46 48 50 51
27 26 27 24 25 25 21 23 23 22 25 23 24 23 24 23 21 19 19 20 20 21 22 23 23 22 23 24 25 26 27 27 29 31 31 31 31 32 32 33 34 34 40 38 40 40 42 32 40
29 29 29 27 25 26 25 26 23 26 28 26 25 26 25 24 23 24 24 23 24 25 26 27 27 27 27 26 24 23 24 23 25 27 28 25 28 35 31 28 26 34 32 29 36 35 37 42 42
31 30 30 26 28 29 27 28 23 28 28 29 29 28 28 27 27 26 27 27 25 26 26 26 26 26 26 26 25 25 25 27 28 23 20 24 20 24 30 31 31 36 40 42 43 48 41 48 51
32 29 30 30 30 30 27 29 26 26 28 32 33 31 30 30 29 29 29 29 27 26 26 25 25 26 27 27 28 27 23 21 18 18 22 24 24 30 31 36 38 43 47 52 54 56 57 59 61
32 30 33 34 30 30 29 33 26 29 29 33 36 35 33 32 31 31 31 30 30 29 27 26 26 26 26 26 27 28 26 23 25 26 28 30 32 34 39 41 45 48 52 56 60 62 62 67 66
33 33 34 35 33 30 32 35 32 30 31 34 37 36 36 35 36 34 33 32 31 29 29 28 28 26 25 24 25 25 27 29 28 30 34 37 39 41 45 49 51 54 57 59 63 66 69 70 74
37 36 34 39 35 32 34 34 35 33 33 36 38 38 39 39 38 38 35 35 34 33 31 29 29 29 27 26 27 27 29 31 34 37 39 42 44 46 49 54 57 59 59 65 68 68 68 75 75
45 42 42 39 37 34 37 34 36 34 37 39 38 40 41 40 42 40 38 38 37 37 36 33 33 32 31 29 31 32 34 37 41 44 47 49 51 52 54 56 60 63 66 66 71 73 75 74 83
51 49 48 42 40 36 38 32 35 41 37 42 41 43 43 44 42 42 42 41 40 39 38 39 38 38 37 38 39 41 43 46 48 51 54 54 53 55 56 59 63 66 67 68 70 74 77 82 86
54 57 52 49 42 37 37 29 36 43 45 41 47 45 46 46 45 44 44 43 42 41 42 42 43 44 45 46 47 48 49 50 51 52 54 55 56 57 59 63 66 66 68 70 72 76 81 85 89
60 61 56 51 44 37 34 37 34 46 47 49 47 47 48 46 45 45 45 44 43 45 45 45 46 47 48 49 48 48 49 49 50 51 53 56 57 59 61 64 66 68 70 72 76 79 83 89 91
65 64 61 52 46 34 39 41 27 45 53 54 51 49 49 49 49 47 47 46 46 46 48 49 50 51 51 49 49 49 51 51 52 54 56 59 60 62 64 67 71 73 73 76 80 83 88 92 97
70 68 60 54 50 40 46 41 29 48 54 54 55 52 52 52 52 52 51 51 49 49 51 53 53 52 52 53 54 55 56 57 57 58 60 63 64 66 69 71 72 74 77 79 84 90 94 98 101
74 69 62 61 55 46 44 36 39 45 54 55 55 57 56 55 55 56 55 53 52 52 52 51 52 54 56 57 58 60 60 61 61 63 65 67 68 69 71 74 75 77 81 84 90 94 96 99 101
71 67 71 67 57 49 45 44 43 45 52 56 61 63 63 62 59 57 57 57 59 60 58 56 56 56 58 60 61 62 64 65 65 66 69 69 71 72 73 76 78 82 87 91 95 99 102 104 106
71 72 71 70 64 53 43 47 48 51 53 58 62 65 66 64 62 61 60 60 59 59 58 58 60 62 61 62 63 63 62 64 66 67 69 72 73 73 76 79 84 88 93 97 100 104 105 107 105
77 74 74 75 71 62 54 49 52 53 57 62 63 65 66 64 62 59 57 59 60 60 62 63 62 60 61 61 62 63 65 68 69 72 74 76 76 79 84 88 91 94 98 101 104 105 108 108 107
81 78 79 78 74 71 64 42 52 55 59 61 62 62 61 61 60 58 58 59 60 61 61 60 59 60 61 62 65 68 69 70 72 73 75 79 84 87 88 89 91 97 103 106 107 106 106 107 110

GFSSGP_250_spd_045.txt.gz
Wind_Speed
31 25 20 17 14 13 11 10 9 8 6 5 4 4 5 6 10 14 18 22 24 27 29 30 33 35 39 44 46 48 46 50 48 45 45 41 41 40 40 41 43 43 44 47 52 53 56 53 51
29 23 18 16 14 13 11 10 12 10 6 6 4 3 4 6 10 14 18 20 23 24 26 28 29 31 32 39 43 42 42 45 45 44 43 44 42 42 43 42 42 44 45 47 48 49 52 54 57
26 23 18 16 15 13 13 11 11 11 8 8 8 5 3 5 8 14 17 21 23 23 24 27 29 31 33 34 34 35 37 40 43 44 42 44 43 44 44 43 41 43 45 45 46 47 50 53 49
24 22 18 17 16 15 14 13 10 10 10 9 8 8 5 5 8 10 14 18 21 21 22 23 26 30 33 32 30 31 33 34 37 40 46 46 45 47 46 46 46 44 44 47 46 49 49 48 46
21 21 19 18 16 14 16 13 13 9 10 9 9 9 7 6 5 8 10 15 18 17 17 17 19 25 30 32 31 30 32 32 33 36 44 46 46 46 47 47 47 45 46 50 48 51 52 52 50
21 21 21 19 17 16 16 15 12 13 10 10 9 11 10 7 7 6 9 11 14 15 15 16 17 18 20 24 25 25 27 29 31 34 37 40 44 45 44 47 50 50 49 50 52 51 53 52 55
23 20 21 20 19 17 16 17 15 13 13 12 11 11 11 11 8 8 8 9 9 12 15 17 17 17 18 19 22 24 26 27 28 30 32 36 40 42 42 46 50 51 53 54 54 56 57 59 59
23 21 19 20 21 20 18 17 18 14 13 11 12 13 13 12 12 11 9 9 10 11 12 16 19 20 21 21 21 21 21 24 27 29 31 35 36 39 41 44 48 50 52 59 60 60 62 64 64
23 21 21 19 20 22 19 19 19 17 12 13 12 13 14 14 15 14 13 13 13 13 13 14 15 17 18 20 22 23 24 24 24 25 28 30 33 36 38 40 42 44 46 49 52 58 61 63 66
23 21 22 24 22 20 22 20 20 17 15 16 14 13 16 14 15 17 16 16 16 16 17 18 18 18 18 19 20 20 21 23 24 26 27 28 30 32 34 35 37 39 41 43 45 46 48 49 51
24 22 23 24 24 23 22 22 23 17 19 18 16 16 14 16 17 17 18 19 19 19 19 20 21 22 22 24 24 24 25 26 26 27 27 29 29 31 32 33 35 35 37 38 40 44 46 47 47
25 24 24 25 24 24 25 24 24 20 22 22 18 18 17 15 18 19 18 19 19 19 19 20 20 22 23 24 25 26 26 27 27 29 30 29 31 32 33 32 34 32 34 36 38 40 39 37 37
28 27 25 24 25 25 26 26 23 23 24 24 22 21 21 19 20 20 19 20 20 20 22 23 24 24 25 26 27 27 28 28 29 30 31 32 32 32 31 31 35 35 33 37 38 33 31 35 37
32 30 28 24 26 28 27 27 23 24 26 24 26 26 23 22 23 22 22 22 23 24 25 27 28 27 27 28 28 28 28 28 29 30 30 29 29 29 31 32 34 35 35 27 35 42 38 40 41
34 33 30 27 29 27 27 29 23 27 26 27 27 27 28 26 25 25 25 25 26 27 28 29 30 30 29 30 30 29 28 29 30 30 27 28 27 24 22 29 24 34 30 33 42 42 40 49 49
36 33 31 31 32 28 26 30 26 26 27 28 28 29 29 30 28 28 29 29 29 30 30 30 29 31 31 32 31 30 30 31 31 31 28 29 30 27 33 33 34 36 37 40 43 45 47 51 54
37 35 36 34 33 30 28 33 26 27 28 30 29 31 32 32 32 30 31 32 31 31 31 31 31 31 31 31 31 32 31 31 31 31 30 29 32 33 33 34 37 40 43 47 48 49 53 56 58
37 38 38 37 35 30 30 34 30 28 30 32 32 30 32 35 34 34 35 33 31 32 32 32 32 33 33 33 33 33 32 32 33 35 34 34 35 38 40 43 44 47 49 52 53 54 58 61 65
42 39 39 43 36 30 33 34 33 30 33 35 35 33 35 35 35 38 39 37 34 32 34 34 34 36 36 36 36 35 35 34 35 35 36 38 41 43 46 49 51 53 53 55 57 58 60 63 65
48 47 46 45 41 33 36 32 37 34 35 39 41 38 38 35 37 40 40 39 39 38 36 37 36 37 39 39 39 39 37 37 39 40 42 44 48 51 52 52 53 54 56 59 61 62 64 67 69
53 51 54 51 48 39 36 30 37 42 41 42 44 47 41 39 38 40 41 41 42 43 40 39 40 39 39 41 42 43 43 45 47 49 52 54 54 54 53 55 56 58 59 60 62 65 68 70 71
53 60 58 58 53 45 38 27 34 43 47 48 49 46 48 45 43 41 42 42 43 44 43 44 44 44 44 43 44 45 46 48 51 53 53 54 54 54 54 55 58 60 62 64 67 70 70 72 73
58 62 62 61 54 41 37 37 31 42 44 57 53 46 47 50 47 45 45 44 43 44 45 45 46 45 47 47 48 49 49 52 54 54 55 55 56 57 58 59 61 64 67 70 72 71 72 74 75
66 65 68 66 57 39 41 47 26 41 51 60 60 51 49 48 49 48 47 46 45 45 46 47 48 48 50 51 52 53 55 57 58 58 59 60 62 62 62 65 67 70 72 72 72 73 74 76 79
72 73 71 67 65 49 41 40 29 40 56 63 64 56 52 50 50 49 48 48 48 48 49 50 51 52 53 54 55 57 59 60 61 62 64 64 65 67 68 70 71 70 70 72 72 73 75 79 83
76 73 72 74 71 57 41 34 39 43 51 63 60 62 58 56 54 54 52 51 52 52 53 53 53 54 56 57 59 60 61 62 63 65 66 66 67 69 69 69 70 72 73 74 74 78 82 87 89
76 75 76 82 73 64 47 41 42 48 49 53 59 60 62 61 59 58 56 56 58 59 59 58 58 58 60 62 63 64 64 64 66 67 67 68 69 69 71 72 74 73 75 79 82 85 88 89 92
80 80 82 83 79 73 54 46 46 51 46 51 58 60 61 61 62 61 59 55 56 58 59 60 61 63 64 66 65 65 66 67 67 68 68 68 70 72 74 75 76 79 80 83 85 87 90 92 94
86 82 83 83 80 75 65 52 51 51 50 52 59 63 63 63 65 64 62 59 56 57 59 59 59 61 63 64 66 66 65 64 65 68 70 72 73 75 76 78 80 82 84 86 89 90 92 93 96
85 82 85 84 80 81 75 52 52 53 55 57 64 69 66 65 66 67 65 62 61 60 60 61 62 62 61 63 64 64 65 66 68 70 72 73 73 76 78 81 83 86 88 90 91 94 95 98 103

GFSSGP_250_spd_048.txt.gz
Wind_Speed
45 44 33 28 22 17 16 14 12 11 8 5 5 5 7 10 12 15 18 20 24 28 31 35 37 38 39 42 40 41 42 40 42 44 41 45 45 44 44 44 44 41 45 45 47 52 50 51 53
47 36 33 27 24 16 15 13 10 11 9 6 4 4 5 8 11 14 18 20 23 26 28 30 31 35 36 40 42 44 46 48 48 51 53 51 50 48 46 47 46 43 43 40 44 46 51 55 51
38 34 33 27 23 19 15 16 12 10 9 7 4 3 4 7 8 12 15 19 23 25 26 27 28 31 34 41 45 45 48 50 52 52 50 53 52 48 48 47 46 44 41 40 42 43 44 47 49
36 34 28 26 21 19 14 14 13 11 9 7 5 4 2 4 8 10 12 15 19 22 24 26 28 29 32 35 41 45 43 42 40 40 41 45 45 48 48 47 45 43 44 41 41 38 43 42 43
38 31 26 25 20 20 15 14 12 13 10 7 7 5 4 2 4 8 11 15 18 20 23 25 27 31 33 35 37 38 38 36 35 36 37 39 41 46 44 45 44 46 46 45 43 41 44 43 46
35 28 25 25 21 20 18 14 13 11 11 10 8 7 6 5 4 5 10 12 16 20 21 21 23 25 28 31 35 36 37 35 35 34 34 35 36 40 41 43 45 47 48 47 47 46 47 48 51
31 26 23 25 22 18 18 15 13 14 10 11 10 8 8 9 7 5 6 12 14 17 20 21 21 22 23 23 25 28 30 32 32 33 33 33 34 36 37 42 46 47 48 48 48 50 52 52 53
29 24 23 23 22 18 18 18 14 12 14 12 11 9 9 10 11 8 9 9 12 14 14 17 21 22 22 22 23 24 25 26 29 30 31 32 33 33 36 39 42 43 44 46 49 51 54 57 61
27 24 23 23 23 21 18 18 17 13 13 13 11 9 10 11 11 13 12 12 12 13 13 14 14 15 18 20 22 24 26 26 26 26 27 28 29 31 32 34 35 38 39 41 45 48 51 53 52
26 25 22 21 21 22 21 18 17 16 14 15 10 11 11 12 12 14 15 15 16 15 16 16 16 18 18 19 20 21 21 22 23 24 24 25 26 27 29 30 31 32 33 35 38 42 45 48 48
26 25 24 22 20 20 21 20 18 17 20 15 13 12 12 12 12 13 16 17 18 19 18 19 19 20 22 24 24 25 25 25 26 26 25 26 27 28 29 29 29 31 32 35 38 40 41 41 43
27 26 25 24 23 23 21 21 20 18 20 21 15 14 14 14 14 13 15 16 17 18 18 17 19 20 23 24 25 25 26 27 28 29 29 29 29 30 31 32 34 35 35 36 37 38 38 39 35
28 27 27 26 26 25 23 23 20 20 22 21 19 17 17 16 15 17 16 17 16 16 18 18 20 22 24 25 26 27 26 26 27 29 30 31 32 32 33 33 34 32 32 34 35 34 36 38 38
31 30 30 27 28 28 24 24 20 25 22 22 23 23 19 19 18 18 17 17 18 17 20 21 23 25 26 27 28 28 28 27 29 30 29 30 31 32 33 31 33 32 35 39 38 39 40 40 45
32 31 31 29 30 31 27 27 23 25 24 24 24 25 24 22 19 20 19 19 21 21 21 23 25 27 29 29 30 31 30 30 30 31 30 30 30 32 31 32 32 32 37 32 32 41 45 43 51
36 33 32 32 33 31 28 29 26 26 27 26 26 26 26 26 24 21 22 21 23 23 24 24 26 27 28 30 31 32 33 32 32 34 34 34 32 32 35 33 32 34 36 39 41 44 46 47 50
39 36 37 36 34 32 31 34 25 28 29 29 29 28 27 29 29 25 27 25 25 24 24 26 28 28 28 30 31 33 33 34 34 36 37 36 35 36 36 35 38 41 42 44 47 50 51 53 55
40 40 40 40 38 33 34 35 30 27 32 34 33 30 30 32 31 29 31 29 27 26 25 27 29 30 30 31 32 34 36 36 37 37 39 39 39 41 42 43 43 44 47 51 54 56 57 58 59
43 42 44 47 41 34 34 34 33 29 34 35 37 36 35 34 30 31 34 31 30 30 29 30 30 31 33 34 35 36 37 37 38 40 40 39 40 42 44 45 48 51 55 58 58 58 59 61 62
48 45 47 49 45 35 39 34 37 34 36 39 39 40 39 36 34 32 34 35 34 33 35 34 32 32 34 37 38 38 39 41 41 41 43 44 44 46 49 53 58 60 60 59 58 58 60 63 64
53 48 50 48 49 41 40 31 38 41 38 42 44 41 40 40 39 36 35 39 37 37 36 36 38 38 37 39 40 40 41 42 42 43 46 48 51 53 55 57 57 57 57 57 57 60 63 65 67
56 59 56 56 53 48 40 26 39 44 42 46 53 49 43 40 41 42 35 36 40 38 37 39 40 41 42 43 41 43 45 46 46 47 48 48 51 54 56 58 59 59 60 61 63 65 67 69 71
63 66 64 62 61 55 39 34 33 43 43 51 58 58 46 43 43 43 43 36 36 37 38 39 41 43 44 45 44 45 48 49 50 51 52 53 56 59 60 62 63 64 66 68 70 71 71 73 73
73 70 71 70 66 52 45 53 30 38 44 51 62 61 53 44 48 48 43 42 40 40 39 39 42 44 46 47 48 49 50 52 53 56 57 59 60 61 63 65 67 69 71 72 73 73 73 73 75
77 77 77 74 67 55 55 57 38 41 45 55 62 64 61 53 48 49 50 48 47 46 45 44 45 47 49 50 51 53 53 55 57 59 62 63 65 66 67 67 68 70 72 73 73 74 75 77 80
83 79 77 75 71 64 63 58 43 50 47 53 61 61 60 56 51 49 50 50 48 47 47 47 49 52 54 56 57 57 57 59 60 63 65 67 67 67 68 71 72 72 73 73 74 76 79 80 80
82 80 76 80 74 71 67 66 50 52 55 55 54 63 59 56 54 51 49 49 48 49 48 49 51 54 56 57 58 59 60 62 63 65 66 67 67 69 71 71 70 72 73 75 77 80 81 81 84
83 81 82 82 80 80 72 68 61 52 54 56 62 60 60 59 57 55 53 53 54 53 53 54 54 55 56 57 58 58 60 60 62 63 64 66 69 70 70 71 72 73 76 79 79 80 82 85 87
90 88 87 88 88 85 77 67 63 57 55 57 63 66 63 62 61 60 59 56 55 55 55 54 55 56 57 57 58 59 59 61 60 61 64 67 69 71 71 74 77 77 78 80 82 85 87 89 90
92 88 89 91 88 87 85 69 64 65 63 61 62 65 68 66 61 62 64 60 59 57 56 57 58 58 58 60 62 62 62 62 63 66 68 69 71 73 73 75 77 80 82 85 86 88 90 92 94